EW4443 Weather Reports


time (UTC)temp
F
wind
direction
speed
knots
gust
knots
rain 1hr
in
rain 24hr
in
rain mn
in
humidity
%
barometer
mb
20260905045405 93 270 0.0 1.7 0.00 0.00 0.00 32 1009.3
20260905044906 93 225 0.0 1.7 0.00 0.00 0.00 32 1009.3
20260905044406 93 270 0.0 0.9 0.00 0.00 0.00 31 1009.3
20260905043906 94 270 0.0 0.0 0.00 0.00 0.00 31 1009.7
20260905043407 94 270 0.0 0.9 0.00 0.00 0.00 30 1009.3
20260905042906 94 293 0.0 1.7 0.00 0.00 0.00 30 1009.3
20260905042637 94 270 0.0 1.7 0.00 0.00 0.00 30 1009.3
20260905041910 94 270 0.0 2.6 0.00 0.00 0.00 29 1009.3
20260905041906 94 293 0.0 2.6 0.00 0.00 0.00 29 1009.0
20260905040905 94 270 0.0 3.5 0.00 0.00 0.00 29 1009.0
20260905040405 94 270 0.0 3.5 0.00 0.00 0.00 29 1009.0
20260905035907 94 293 0.0 3.5 0.00 0.00 0.00 29 1009.0
20260905035406 94 180 0.0 3.5 0.00 0.00 0.00 29 1009.0
20260905034906 94 248 0.9 3.5 0.00 0.00 0.00 29 1009.0
20260905034638 95 270 0.0 3.5 0.00 0.00 0.00 29 1009.0
20260905033906 95 270 0.9 3.5 0.00 0.00 0.00 27 1009.0
20260905033405 95 225 0.0 4.3 0.00 0.00 0.00 29 1008.7
20260905032906 95 270 0.9 4.3 0.00 0.00 0.00 29 1009.0
20260905032405 94 225 0.9 3.5 0.00 0.00 0.00 29 1008.7
20260905031905 95 270 0.0 4.3 0.00 0.00 0.00 30 1009.0
20260905031406 95 23 0.9 4.3 0.00 0.00 0.00 30 1008.7
20260905030906 95 23 0.9 2.6 0.00 0.00 0.00 31 1008.7
20260905030406 94 270 0.0 2.6 0.00 0.00 0.00 34 1008.7
20260905025906 94 270 0.0 2.6 0.00 0.00 0.00 35 1008.0
20260905025407 94 270 0.0 0.9 0.00 0.00 0.00 35 1008.3
20260905025136 94 90 0.0 0.9 0.00 0.00 0.00 35 1008.0
20260905024405 94 90 0.0 2.6 0.00 0.00 0.00 35 1008.0
20260905024138 94 113 0.9 2.6 0.00 0.00 0.00 37 1008.0
20260905023405 94 68 0.0 1.7 0.00 0.00 0.00 35 1008.0
20260905022906 95 45 0.0 0.9 0.00 0.00 0.00 37 1008.0
20260905022406 95 45 0.0 0.9 0.00 0.00 0.00 37 1008.0
20260905022137 95 45 0.0 0.0 0.00 0.00 0.00 37 1007.3
20260905021407 95 45 0.0 0.0 0.00 0.00 0.00 35 1007.6
20260905020907 95 68 0.0 0.0 0.00 0.00 0.00 37 1007.3
20260905020405 95 68 0.0 0.0 0.00 0.00 0.00 37 1007.6
20260905015907 96 68 0.0 0.9 0.00 0.00 0.00 37 1007.6
20260905015406 96 45 0.0 0.9 0.00 0.00 0.00 35 1007.3
20260905014905 96 68 0.0 0.0 0.00 0.00 0.00 35 1007.6
20260905014406 96 68 0.0 0.0 0.00 0.00 0.00 35 1007.3
20260905013907 96 68 0.0 1.7 0.00 0.00 0.00 35 1007.3
20260905013406 96 68 0.0 1.7 0.00 0.00 0.00 35 1007.3
20260905012906 96 90 0.0 2.6 0.00 0.00 0.00 34 1007.3
20260905012406 97 68 0.0 2.6 0.00 0.00 0.00 34 1007.3
20260905012136 97 338 0.0 0.9 0.00 0.00 0.00 34 1007.3
20260905011406 97 23 0.0 1.7 0.00 0.00 0.00 32 1007.3
20260905010906 97 0 0.0 1.7 0.00 0.00 0.00 34 1007.3
20260905010405 97 0 0.0 0.0 0.00 0.00 0.00 34 1007.3
20260905005906 98 315 0.0 0.0 0.00 0.00 0.00 34 1007.3
20260905005406 98 0 0.0 2.6 0.00 0.00 0.00 34 1007.3
20260905004906 98 90 0.0 2.6 0.00 0.00 0.00 32 1007.3
20260905004407 98 0 0.0 1.7 0.00 0.00 0.00 31 1007.3
20260905003906 98 45 0.0 1.7 0.00 0.00 0.00 30 1007.3
20260905003406 98 90 0.0 2.6 0.00 0.00 0.00 30 1007.3
20260905002905 98 158 0.0 2.6 0.00 0.00 0.00 30 1007.6
20260905002405 99 203 0.0 4.3 0.00 0.00 0.00 30 1007.6
20260905001905 99 158 0.9 4.3 0.00 0.00 0.00 30 1008.0
20260905001405 99 203 0.0 3.5 0.00 0.00 0.00 30 1007.3
20260905001137 99 158 0.9 3.5 0.00 0.00 0.00 30 1007.6
20260905000406 100 180 0.9 4.3 0.00 0.00 0.00 30 1007.6
20260904235907 100 248 0.9 5.2 0.00 0.00 0.00 30 1007.3
20260904235406 100 45 0.9 5.2 0.00 0.00 0.00 30 1007.6
20260904234854 100 270 0.9 4.3 0.00 0.00 0.00 30 1007.6
20260904234618 100 225 0.9 4.3 0.00 0.00 0.00 29 1007.6
20260904233846 100 203 0.9 3.5 0.00 0.00 0.00 30 1007.6
20260904233346 100 248 0.0 2.6 0.00 0.00 0.00 30 1007.6
20260904232847 100 158 0.9 3.5 0.00 0.00 0.00 30 1007.6
20260904232618 100 270 0.9 4.3 0.00 0.00 0.00 30 1008.0
20260904232604 100 270 0.9 4.3 0.00 0.00 0.00 30 1007.6
20260904231347 100 293 0.9 4.3 0.00 0.00 0.00 30 1008.0
20260904230847 100 338 0.0 3.5 0.00 0.00 0.00 31 1007.6
20260904230347 100 203 0.9 5.2 0.00 0.00 0.00 30 1007.6
20260904225846 100 180 0.9 5.2 0.00 0.00 0.00 30 1007.6
20260904225617 99 225 0.0 4.3 0.00 0.00 0.00 30 1007.6
20260904224846 99 180 0.0 7.0 0.00 0.00 0.00 31 1008.0
20260904224347 99 158 1.7 7.0 0.00 0.00 0.00 30 1008.3
20260904223846 98 180 0.0 7.0 0.00 0.00 0.00 34 1008.0
20260904223347 98 180 1.7 7.0 0.00 0.00 0.00 31 1008.3
20260904222847 99 180 0.9 6.1 0.00 0.00 0.00 30 1008.3
20260904222347 99 180 1.7 6.1 0.00 0.00 0.00 31 1008.3
20260904221847 99 158 0.9 5.2 0.00 0.00 0.00 30 1008.3
20260904221347 99 248 0.0 2.6 0.00 0.00 0.00 32 1008.3
20260904220846 99 180 0.0 4.3 0.00 0.00 0.00 32 1008.3
20260904220346 99 90 0.9 4.3 0.00 0.00 0.00 30 1008.7
20260904220116 99 248 0.9 6.1 0.00 0.00 0.00 31 1008.7
20260904215346 99 180 1.7 7.0 0.00 0.00 0.00 32 1008.7
20260904214846 99 225 1.7 7.0 0.00 0.00 0.00 31 1009.0
20260904214346 99 225 0.9 7.8 0.00 0.00 0.00 32 1008.7
20260904214117 99 225 1.7 7.8 0.00 0.00 0.00 32 1008.7
20260904213350 99 203 0.9 5.2 0.00 0.00 0.00 31 1008.7
20260904213346 99 225 1.7 7.8 0.00 0.00 0.00 31 1009.0
20260904212345 99 270 0.9 9.6 0.00 0.00 0.00 32 1009.0
20260904211845 100 135 1.7 9.6 0.00 0.00 0.00 31 1009.0
20260904211615 100 180 0.9 3.5 0.00 0.00 0.00 31 1009.0
20260904210845 100 203 0.0 6.1 0.00 0.00 0.00 31 1009.3
20260904210346 100 225 1.7 7.0 0.00 0.00 0.00 30 1009.3
20260904210116 100 203 1.7 10.4 0.00 0.00 0.00 30 1009.3
20260904205346 100 180 2.6 10.4 0.00 0.00 0.00 30 1009.3
20260904204847 100 180 0.9 6.1 0.00 0.00 0.00 31 1009.3
20260904204345 100 180 0.9 6.1 0.00 0.00 0.00 32 1009.3
20260904203845 100 180 0.9 6.1 0.00 0.00 0.00 34 1009.7
20260904203346 100 180 0.9 6.1 0.00 0.00 0.00 34 1009.7
20260904202845 100 45 0.9 7.8 0.00 0.00 0.00 34 1009.7
20260904202346 100 180 0.9 7.8 0.00 0.00 0.00 35 1009.7
20260904201846 99 203 0.0 5.2 0.00 0.00 0.00 35 1010.0
20260904201345 99 338 0.9 5.2 0.00 0.00 0.00 35 1010.0
20260904200845 99 225 0.9 6.1 0.00 0.00 0.00 35 1010.5
20260904200616 99 203 0.9 7.0 0.00 0.00 0.00 35 1010.5
20260904195845 99 180 1.7 8.7 0.00 0.00 0.00 35 1010.5
20260904195351 98 158 0.9 7.0 0.00 0.00 0.00 37 1010.8
20260904195343 99 180 1.7 8.7 0.00 0.00 0.00 37 1010.5
20260904194844 98 180 0.0 4.3 0.00 0.00 0.00 37 1010.5
20260904193844 98 68 0.9 7.0 0.00 0.00 0.00 37 1010.5
20260904193617 98 158 1.7 7.0 0.00 0.00 0.00 37 1010.8
20260904192845 98 180 0.9 4.3 0.00 0.00 0.00 37 1010.8
20260904192345 98 0 1.7 7.8 0.00 0.00 0.00 37 1010.8
20260904191845 99 180 0.9 7.8 0.00 0.00 0.00 37 1010.8
20260904191616 99 180 1.7 6.1 0.00 0.00 0.00 37 1010.8
20260904190844 99 180 0.9 6.1 0.00 0.00 0.00 37 1011.1
20260904190344 99 180 0.9 6.1 0.00 0.00 0.00 37 1011.1
20260904185843 99 180 0.9 6.1 0.00 0.00 0.00 37 1011.1
20260904185614 98 180 0.0 7.0 0.00 0.00 0.00 39 1011.5
20260904184845 98 135 0.9 7.0 0.00 0.00 0.00 40 1011.5
20260904184345 98 158 1.7 7.0 0.00 0.00 0.00 39 1011.1
20260904183845 98 180 0.9 7.0 0.00 0.00 0.00 39 1011.5
20260904183345 98 270 0.9 6.1 0.00 0.00 0.00 39 1011.5
20260904182845 98 225 0.9 5.2 0.00 0.00 0.00 39 1011.5
20260904182344 98 180 0.9 7.0 0.00 0.00 0.00 40 1011.5
20260904181843 98 180 1.7 7.0 0.00 0.00 0.00 40 1011.8
20260904181343 97 203 0.9 6.1 0.00 0.00 0.00 40 1011.8
20260904180844 97 225 1.7 6.1 0.00 0.00 0.00 39 1011.8
20260904180344 97 248 0.9 7.8 0.00 0.00 0.00 40 1011.8
20260904175844 97 180 1.7 7.8 0.00 0.00 0.00 40 1011.8
20260904175344 98 135 1.7 7.0 0.00 0.00 0.00 40 1011.8
20260904174844 98 135 0.9 6.1 0.00 0.00 0.00 40 1012.5
20260904174344 97 225 0.9 6.1 0.00 0.00 0.00 40 1012.1
20260904173843 97 90 0.9 7.0 0.00 0.00 0.00 40 1012.1
20260904173343 97 180 0.9 7.0 0.00 0.00 0.00 40 1012.1
20260904172843 96 135 1.7 7.0 0.00 0.00 0.00 41 1012.1
20260904172342 96 180 1.7 7.8 0.00 0.00 0.00 41 1012.5
20260904171844 96 203 1.7 7.8 0.00 0.00 0.00 41 1012.1
20260904171344 96 203 1.7 7.8 0.00 0.00 0.00 41 1012.5
20260904170844 96 158 1.7 8.7 0.00 0.00 0.00 41 1012.1
20260904170344 96 248 1.7 8.7 0.00 0.00 0.00 43 1012.1
20260904165844 96 180 1.7 8.7 0.00 0.00 0.00 43 1012.1
20260904165346 95 158 1.7 7.8 0.00 0.00 0.00 44 1012.1
20260904165342 95 23 1.7 7.0 0.00 0.00 0.00 43 1011.8
20260904164342 95 180 1.7 7.8 0.00 0.00 0.00 44 1012.1
20260904163842 95 203 0.9 7.0 0.00 0.00 0.00 45 1011.8
20260904163343 94 158 0.9 6.1 0.00 0.00 0.00 44 1011.8
20260904162843 94 203 0.9 6.1 0.00 0.00 0.00 45 1012.1
20260904162343 93 180 1.7 6.1 0.00 0.00 0.00 46 1011.8
20260904161843 92 180 0.9 6.1 0.00 0.00 0.00 49 1012.1
20260904161344 91 45 0.9 7.8 0.00 0.00 0.00 50 1012.1
20260904160842 91 248 1.7 7.8 0.00 0.00 0.00 50 1012.1
20260904160342 90 180 1.7 7.8 0.00 0.00 0.00 50 1012.1
20260904155841 90 180 1.7 8.7 0.00 0.00 0.00 50 1012.1
20260904155612 90 180 1.7 8.7 0.00 0.00 0.00 51 1012.1
20260904154842 90 180 0.9 10.4 0.00 0.00 0.00 53 1011.8
20260904154343 90 225 1.7 10.4 0.00 0.00 0.00 53 1012.1
20260904153843 90 158 0.9 5.2 0.00 0.00 0.00 53 1011.8
20260904153343 90 158 0.9 5.2 0.00 0.00 0.00 53 1011.8
20260904152843 89 180 0.9 5.2 0.00 0.00 0.00 54 1011.8
20260904152341 89 68 0.9 5.2 0.00 0.00 0.00 55 1011.8
20260904151842 89 203 0.0 7.0 0.00 0.00 0.00 55 1011.8
20260904151341 88 180 0.9 7.0 0.00 0.00 0.00 55 1011.8
20260904150841 88 203 1.7 5.2 0.00 0.00 0.00 55 1011.8
20260904150343 88 180 0.0 5.2 0.00 0.00 0.00 55 1011.5
20260904150117 87 225 0.9 5.2 0.00 0.00 0.00 56 1011.8
20260904145842 87 180 0.0 5.2 0.00 0.00 0.00 56 1011.8
20260904144842 87 270 0.0 5.2 0.00 0.00 0.00 56 1011.5
20260904144343 87 203 0.9 5.2 0.00 0.00 0.00 58 1011.5
20260904143843 86 225 0.0 2.6 0.00 0.00 0.00 58 1011.5
20260904143340 86 180 0.0 4.3 0.00 0.00 0.00 59 1011.5
20260904143111 86 248 0.0 4.3 0.00 0.00 0.00 59 1011.1
20260904142341 85 225 0.0 3.5 0.00 0.00 0.00 60 1011.1
20260904142113 85 90 0.9 3.5 0.00 0.00 0.00 60 1011.1
20260904141342 85 180 0.0 4.3 0.00 0.00 0.00 61 1011.5
20260904141114 85 180 0.9 4.3 0.00 0.00 0.00 61 1011.1
20260904140342 84 180 0.9 6.1 0.00 0.00 0.00 61 1011.1
20260904135842 84 180 0.9 6.1 0.00 0.00 0.00 61 1010.8
20260904135340 84 135 0.9 6.1 0.00 0.00 0.00 61 1010.8
20260904135111 84 180 0.9 5.2 0.00 0.00 0.00 61 1010.8
20260904134341 84 203 0.9 5.2 0.00 0.00 0.00 61 1010.8
20260904133842 84 203 0.9 4.3 0.00 0.00 0.00 61 1010.8
20260904133342 84 203 0.9 4.3 0.00 0.00 0.00 61 1010.5
20260904132842 84 45 0.9 4.3 0.00 0.00 0.00 61 1010.8
20260904132342 84 158 0.9 2.6 0.00 0.00 0.00 61 1010.5
20260904131842 84 113 0.0 5.2 0.00 0.00 0.00 61 1010.8
20260904131342 84 45 0.9 5.2 0.00 0.00 0.00 61 1010.5
20260904130842 84 180 0.9 5.2 0.00 0.00 0.00 60 1010.5
20260904130341 84 45 0.0 2.6 0.00 0.00 0.00 60 1010.5
20260904125840 84 113 0.9 2.6 0.00 0.00 0.00 60 1010.0
20260904125341 84 135 0.0 1.7 0.00 0.00 0.00 60 1010.5
20260904124840 84 180 0.0 2.6 0.00 0.00 0.00 60 1010.0
20260904124346 84 180 0.0 2.6 0.00 0.00 0.00 59 1009.7
20260904124342 84 270 0.0 2.6 0.00 0.00 0.00 60 1010.0
20260904123342 84 113 0.9 2.6 0.00 0.00 0.00 59 1010.0
20260904122841 84 203 0.0 2.6 0.00 0.00 0.00 59 1009.7
20260904122342 84 90 0.9 3.5 0.00 0.00 0.00 59 1009.7
20260904122111 85 158 0.9 3.5 0.00 0.00 0.00 59 1009.7
20260904121340 85 45 0.0 2.6 0.00 0.00 0.00 58 1009.3
20260904120841 85 113 0.0 2.6 0.00 0.00 0.00 58 1009.7
20260904120341 85 180 0.0 2.6 0.00 0.00 0.00 58 1009.7
20260904115841 85 135 0.0 0.9 0.00 0.00 0.00 58 1009.7
20260904115342 85 225 0.0 1.7 0.00 0.00 0.00 56 1009.7
20260904114841 85 158 0.0 1.7 0.00 0.00 0.00 56 1010.0
20260904114341 85 135 0.0 0.9 0.00 0.00 0.00 56 1009.7
20260904113842 85 135 0.0 2.6 0.00 0.00 0.00 56 1009.7
20260904113341 85 158 0.0 2.6 0.00 0.00 0.00 56 1009.7
20260904112841 85 135 0.0 3.5 0.00 0.00 0.00 56 1009.7
20260904112340 85 203 0.0 3.5 0.00 0.00 0.00 56 1009.7
20260904111841 85 180 0.0 3.5 0.00 0.00 0.00 56 1009.7
20260904111341 85 203 0.0 3.5 0.00 0.00 0.00 55 1009.7
20260904111112 85 203 0.0 2.6 0.00 0.00 0.00 55 1009.7
20260904110341 85 180 0.0 1.7 0.00 0.00 0.00 55 1009.3
20260904105841 85 113 0.0 1.7 0.00 0.00 0.00 55 1009.3
20260904105342 85 0 0.0 0.9 0.00 0.00 0.00 55 1009.3
20260904104842 85 293 0.0 2.6 0.00 0.00 0.00 55 1009.7
20260904104340 85 45 0.0 2.6 0.00 0.00 0.00 55 1009.3
20260904103841 85 45 0.0 2.6 0.00 0.00 0.00 55 1009.7
20260904103340 85 248 0.0 3.5 0.00 0.00 0.00 55 1009.3
20260904102841 85 180 0.0 3.5 0.00 0.00 0.00 55 1009.3
20260904102613 85 180 0.0 3.5 0.00 0.00 0.00 55 1009.3
20260904101841 86 158 0.0 3.5 0.00 0.00 0.00 55 1009.3
20260904101342 86 158 0.0 3.5 0.00 0.00 0.00 55 1009.3
20260904100841 86 158 0.0 2.6 0.00 0.00 0.00 55 1009.3
20260904100342 86 158 0.0 2.6 0.00 0.00 0.00 55 1009.3
20260904095840 86 68 0.0 3.5 0.00 0.00 0.00 55 1009.0
20260904095340 86 180 0.0 4.3 0.00 0.00 0.00 55 1009.0
20260904094841 86 180 0.0 4.3 0.00 0.00 0.00 55 1009.3
20260904094340 86 180 0.0 4.3 0.00 0.00 0.00 55 1009.0
20260904093841 86 158 0.0 4.3 0.00 0.00 0.00 55 1009.0
20260904093341 86 248 0.0 0.0 0.00 0.00 0.00 54 1009.0
20260904092842 86 270 0.0 0.9 0.00 0.00 0.00 54 1009.0
20260904092341 86 135 0.0 0.9 0.00 0.00 0.00 54 1009.0
20260904092112 86 45 0.0 0.0 0.00 0.00 0.00 55 1009.0
20260904091342 86 23 0.0 0.0 0.00 0.00 0.00 54 1009.0
20260904090840 86 23 0.0 0.9 0.00 0.00 0.00 53 1009.3
20260904090610 86 45 0.0 0.9 0.00 0.00 0.00 54 1008.7
20260904085840 86 270 0.0 0.9 0.00 0.00 0.00 54 1009.0
20260904085341 86 180 0.0 0.0 0.00 0.00 0.00 55 1009.0
20260904084841 86 180 0.0 0.0 0.00 0.00 0.00 54 1009.3
20260904084613 86 180 0.0 1.7 0.00 0.00 0.00 54 1009.3
20260904083841 86 180 0.0 1.7 0.00 0.00 0.00 53 1009.3
20260904083342 86 180 0.0 1.7 0.00 0.00 0.00 54 1009.3
20260904082840 86 203 0.0 3.5 0.00 0.00 0.00 53 1009.3
20260904082341 86 180 0.9 3.5 0.00 0.00 0.00 54 1009.3
20260904081841 86 203 0.0 3.5 0.00 0.00 0.00 54 1009.0
20260904081340 86 158 0.9 5.2 0.00 0.00 0.00 54 1009.0
20260904080841 87 135 0.9 5.2 0.00 0.00 0.00 53 1009.3
20260904080341 87 180 0.9 6.1 0.00 0.00 0.00 54 1009.3
20260904075842 87 180 0.9 6.1 0.00 0.00 0.00 53 1009.0
20260904075341 87 158 0.9 5.2 0.00 0.00 0.00 53 1009.3
20260904074842 87 180 0.9 5.2 0.00 0.00 0.00 53 1009.3
20260904074340 87 180 0.9 6.1 0.00 0.00 0.00 53 1009.3
20260904073841 87 225 1.7 6.1 0.00 0.00 0.00 53 1009.0
20260904073339 87 225 0.9 7.0 0.00 0.00 0.00 51 1009.0
20260904072840 87 158 1.7 7.0 0.00 0.00 0.00 51 1009.0
20260904072341 87 225 0.9 6.1 0.00 0.00 0.00 51 1009.0
20260904071341 88 180 0.9 5.2 0.00 0.00 0.00 51 1009.0
20260904070841 88 203 0.9 5.2 0.00 0.00 0.00 51 1009.0
20260904070340 88 203 0.9 5.2 0.00 0.00 0.00 51 1009.0
20260904065839 88 90 0.9 5.2 0.00 0.00 0.00 50 1009.0
20260904065610 88 203 0.9 4.3 0.00 0.00 0.00 50 1008.7
20260904065558 88 203 0.9 6.1 0.00 0.00 0.00 50 1008.7
20260904064340 89 180 0.9 6.1 0.00 0.00 0.00 50 1008.7
20260904063840 89 180 1.7 6.1 0.00 0.00 0.00 50 1008.7
20260904063340 89 203 0.9 5.2 0.00 0.00 0.00 50 1008.7
20260904062841 89 203 1.7 5.2 0.00 0.00 0.00 50 1008.7
20260904062341 89 180 0.9 9.6 0.00 0.00 0.00 50 1008.7
20260904061840 89 180 1.7 9.6 0.00 0.00 0.00 49 1008.7
20260904061341 89 203 1.7 7.8 0.00 0.00 0.00 49 1008.7
20260904060839 90 180 1.7 7.0 0.00 0.00 0.00 49 1008.7
20260904060339 90 158 1.7 7.0 0.00 0.00 0.00 48 1008.7
20260904055840 90 135 1.7 7.8 0.00 0.00 0.00 48 1008.3
20260904055339 90 180 1.7 7.8 0.00 0.00 0.00 46 1008.3
20260904054840 90 180 1.7 7.8 0.00 0.00 0.00 46 1008.3
20260904054340 90 180 0.9 4.3 0.00 0.00 0.00 45 1008.3
20260904053840 91 180 0.9 6.1 0.00 0.00 0.00 45 1008.7
20260904053340 91 203 0.9 7.8 0.00 0.00 0.00 45 1008.3
20260904052840 91 158 1.7 7.8 0.00 0.00 0.00 45 1008.3
20260904052611 91 113 1.7 7.0 0.00 0.00 0.00 45 1008.3
20260904051839 91 158 0.0 4.3 0.00 0.00 0.00 44 1008.3
20260904051339 91 203 0.9 4.3 0.00 0.00 0.00 44 1008.3
20260904050838 91 180 0.9 2.6 0.00 0.00 0.00 43 1008.3
20260904050340 91 203 0.0 3.5 0.00 0.00 0.00 43 1008.0
20260904045840 91 203 0.9 4.3 0.00 0.00 0.00 43 1008.3